Back to catalog

STARLINK-32230

AliveCommunicationsVLEO
NORAD 60366·PAYLOAD·🇺🇸 United States

Launched Aug 4, 2024 from Vandenberg Space Force Base

Loading…

Next Passes (next 24 hours)

TLE

FreshSource: CelesTrak SupGP

Epoch: Sep 14, 2026, 21:10 UTC

1 60366C 24138M   26257.88243056 -.00045213  00000+0 -13356-2 0  2570
2 60366  53.1570 149.9590 0001191  89.6292 358.5794 15.34417876    17

Track STARLINK-32230 in real time with AllMySat

Download on the App Store